www.pogodaiklimat.ru

Погода и климат >> Архив погоды >> Французская Полинезия >> Bora-Bora Airport


ПОГОДА в Bora-Bora Airport

  • Прогноз погоды в Bora-Bora Airport
  • Монитор погоды в Bora-Bora Airport
  • Климат города

АРХИВ ПОГОДЫ в Bora-Bora Airport

Время (UTC), дата Ветер
(напр.,м/с)
 
Видим.   Явления Облачность Т
(С)
Тd
(С)
f
(%)
Тe
(С)
Тes
(С)
Комфортность P
(гПа)
Po
(гПа)
Тmin
(С)
Tmax
(С)
R
(мм)
R24
(мм)
S
(см)
16 9.08 Ю 6
{10}
60 км 10/10 1000 м
[]
+23.8 +17.1 66 +28 +28 душно 1015.6 1015.3
17 9.08 Ю 3 60 км 10/10 1140 м
[]
+24.2 +16.7 63 +28 +28 душно 1016.3 1016.0
18 9.08 Ю 4 60 км 8/3 1110 м
[]
+24.6 +16.8 62 +28 +29 душно 1017.0 1016.7 +23.3 +24.6
19 9.08 Ю 4 60 км 9/9 1320 м
[]
+24.8 +16.0 58 +28 +29 жарко 1017.8 1017.5
20 9.08 Ю 3 60 км н/о +25.4 +15.1 53 +28 +28 жарко 1018.1 1017.8
21 9.08 Ю 7
{11}
60 км 9/9 1000 м
[]
+25.8 +15.8 54 +29 +29 душно 1017.9 1017.6
22 9.08 Ю 4 60 км 8/8
[]
+26.0 +15.1 51 +29 +31 душно 1017.4 1017.1
23 9.08 Ю 4 60 км н/о +26.3 +15.0 50 +29 +29 жарко 1016.9 1016.6
00 10.08 ЮВ 8
{14}
60 км н/о +26.7 +16.6 54 +30 +30 душно 1016.3 1016.0
01 10.08 Ю 5 60 км 10/10 1050 м
[]
+25.6 +16.2 56 +29 +29 душно 1015.8 1015.5
02 10.08 Ю 5 60 км н/о +25.9 +15.9 54 +29 +29 душно 1015.7 1015.4
03 10.08 Ю 5 60 км н/о +25.2 +14.9 53 +28 +28 жарко 1016.2 1015.9
04 10.08 ЮВ 4 60 км н/о +24.7 +16.1 59 +28 +28 душно 1016.6 1016.3
05 10.08 ЮВ 5 60 км 10/10 1230 м
[]
+24.9 +16.3 59 +28 +28 жарко 1017.0 1016.7
06 10.08 ЮВ 5 55 км 8/8 1140 м
[]
+24.6 +16.8 62 +28 +28 душно 1017.4 1017.1 +24.6 +26.9
07 10.08 ЮВ 4 60 км 10/10 1300 м
[]
+24.4 +15.9 59 +28 +28 душно 1017.8 1017.5
08 10.08 ЮВ 5 60 км н/о +24.0 +14.4 55 +27 +27 жарко 1018.0 1017.7
09 10.08 ЮВ 4 60 км 9/9 1260 м
[]
+23.8 +15.0 58 +27 +27 жарко 1017.9 1017.6
10 10.08 ЮВ 6 60 км 9/9 1300 м
[]
+24.0 +15.5 59 +27 +27 жарко 1017.6 1017.3
11 10.08 ЮВ 5 60 км н/о +23.4 +14.1 56 +27 +27 душно 1017.3 1017.0
12 10.08 ЮВ 5 60 км 9/9 1260 м
[]
+23.9 +15.4 59 +27 +27 жарко 1016.8 1016.5
13 10.08 ЮВ 5 60 км 8/8 1260 м
[]
+23.5 +14.8 58 +26 +26 жарко 1016.4 1016.1
14 10.08 ЮВ 4 60 км н/о +23.1 +14.4 58 +27 +27 душно 1016.4 1016.1
15 10.08 ЮВ 4 60 км н/о +23.2 +13.9 56 +27 +27 душно 1016.5 1016.2
16 10.08 В 4 60 км н/о +22.9 +13.4 55 +26 +26 жарко 1017.3 1017.0
17 10.08 В 8
{12}
50 км 9/9 1000 м
[]
+23.6 +13.5 53 +26 +26 жарко 1017.9 1017.6
18 10.08 ЮВ 4 60 км н/о +24.7 +14.2 52 +27 +27 жарко 1018.8 1018.5 +22.6 +24.7
19 10.08 ЮВ 4 60 км н/о +25.1 +14.5 52 +28 +28 жарко 1019.3 1019.0
20 10.08 В 4 60 км н/о +26.6 +14.7 48 +29 +29 жарко 1019.3 1019.0
21 10.08 ЮВ 4 60 км н/о +27.1 +13.8 44 +29 +29 жарко 1018.6 1018.3
22 10.08 В 4 50 км н/о +27.4 +13.7 43 +29 +29 жарко 1017.7 1017.4
23 10.08 В 4 50 км 9/9 1500 м
[]
+27.4 +14.8 46 +30 +31 жарко 1017.2 1016.9
00 11.08 В 4-5
{6}
60 км н/о +27.3 +14.7 46 +30 +30 душно 1016.6 1016.3
01 11.08 В 3 55 км н/о +27.1 +14.5 46 +30 +30 душно 1016.1 1015.8
02 11.08 В 3 60 км н/о +26.3 +13.8 46 +28 +28 жарко 1016.1 1015.8
03 11.08 ЮВ 3 55 км н/о +25.4 +14.8 52 +28 +28 жарко 1016.4 1016.1
04 11.08 В 3 60 км н/о +24.7 +15.1 55 +28 +28 душно 1016.9 1016.6
05 11.08 ЮВ 4 55 км 8/8 1300 м
[]
+24.9 +16.3 59 +28 +28 жарко 1017.1 1016.8
06 11.08 В 3 55 км 9/9 1470 м
[]
+25.0 +15.6 56 +28 +28 жарко 1017.4 1017.1 +24.4 +28.0
07 11.08 В 4 60 км 10/10 1470 м
[]
+25.0 +14.8 53 +28 +28 жарко 1017.7 1017.4
08 11.08 ЮВ 3 60 км 8/4 1230 м
[]
+24.7 +15.9 58 +28 +28 душно 1017.7 1017.4
09 11.08 В 4 55 км 9/5 1080 м
[]
+25.0 +16.7 60 +29 +29 душно 1017.8 1017.5
10 11.08 В 5 30 км н/о +25.0 +16.2 58 +28 +28 жарко 1017.3 1017.0
11 11.08 В 5 30 км н/о +24.8 +15.1 55 +28 +28 жарко 1016.5 1016.2
12 11.08 В 4-5
{7}
50 км н/о +24.5 +15.4 57 +27 +27 жарко 1016.1 1015.8
13 11.08 В 4 55 км н/о +24.5 +16.0 59 +28 +28 душно 1015.9 1015.6
14 11.08 ЮВ 4 55 км 9/9 1110 м
[]
+24.5 +16.5 61 +28 +28 душно 1016.1 1015.8
15 11.08 В 8
{12}
55 км 10/10 1000 м
[]
+24.4 +15.3 57 +27 +27 жарко 1016.3 1016.0
16 11.08 ЮВ 3 60 км 9/9 1110 м
[]
+24.3 +16.8 63 +28 +28 душно 1016.9 1016.6
17 11.08 В 4 50 км 10/9 1110 м
[]
+24.6 +16.8 62 +28 +28 душно 1017.1 1016.8
18 11.08 В 8
{13}
50 км н/о +24.7 +16.1 59 +28 +28 душно 1017.2 1016.9 +23.8 +25.3 0.0
19 11.08 В 4 60 км н/о +26.7 +16.0 52 +30 +30 душно 1017.1 1016.8
20 11.08 В 4 50 км н/о +27.2 +16.8 53 +31 +31 душно 1017.1 1016.8
21 11.08 В 4 40 км н/о +27.8 +16.1 49 +31 +31 душно 1016.8 1016.5
22 11.08 В 4 35 км н/о +28.0 +17.2 52 +32 +32 душно 1016.4 1016.1
23 11.08 В 4 35 км н/о +28.0 +18.4 56 +33 +33 очень
душно
1015.9 1015.6
00 12.08 ЮВ 4-5
{6}
35 км н/о +27.5 +16.8 52 +31 +31 душно 1015.5 1015.2
01 12.08 В 4 35 км н/о +27.4 +17.3 54 +31 +31 душно 1015.1 1014.8
02 12.08 В 4 40 км н/о +27.5 +17.1 53 +31 +31 душно 1015.2 1014.9
03 12.08 В 3 45 км н/о +26.8 +16.1 52 +30 +30 душно 1015.8 1015.5
04 12.08 В 3 55 км н/о +25.7 +16.8 58 +29 +29 душно 1016.1 1015.8
05 12.08 В 3 60 км н/о +25.6 +17.3 60 +30 +30 душно 1016.6 1016.3
06 12.08 В 3-5
{5}
55 км н/о +25.4 +17.6 62 +30 +30 душно 1017.0 1016.7 +24.7 +28.4
07 12.08 В 3 55 км н/о +25.5 +17.9 63 +30 +30 душно 1017.4 1017.1
08 12.08 В 3 55 км н/о +25.1 +18.3 66 +30 +30 душно 1017.3 1017.0
09 12.08 В 7
{11}
50 км н/о +25.2 +18.9 68 +30 +30 душно 1016.8 1016.5
10 12.08 В 6
{10}
40 км 8/8 600 м
[]
+25.6 +19.7 70 +31 +31 очень
душно
1016.8 1016.5
11 12.08 В 6
{9}
50 км н/о +25.4 +19.1 68 +30 +30 душно 1016.2 1015.9
12 12.08 В 6
{10}
27 км н/о +25.5 +19.6 70 +31 +31 очень
душно
1015.4 1015.1
13 12.08 В 6
{9}
26 км н/о +25.6 +19.9 71 +31 +31 очень
душно
1015.2 1014.9
14 12.08 В 7
{9}
35 км 10/10 600 м
[]
+25.8 +19.9 70 +32 +32 очень
душно
1015.1 1014.8
15 12.08 В 7
{9}
35 км н/о +25.7 +20.5 73 +32 +32 очень
душно
1014.9 1014.6
16 12.08 В 6
{9}
35 км н/о +25.7 +20.0 71 +32 +32 очень
душно
1015.3 1015.0
17 12.08 В 6
{9}
28 км н/о +25.9 +20.5 72 +32 +32 очень
душно
1015.9 1015.6
18 12.08 В 6
{9}
40 км 10/10 600 м
[]
+26.6 +20.7 70 +33 +33 очень
душно
1016.4 1016.1 +25.1 +26.6
19 12.08 В 6
{9}
25 км н/о +27.1 +20.4 67 +34 +34 очень
душно
1016.7 1016.4
20 12.08 В 7
{10}
25 км н/о +28.5 +21.3 65 +36 +36 очень
душно
1016.7 1016.4
21 12.08 В 8
{10}
24 км н/о +28.8 +20.8 62 +36 +36 очень
душно
1016.0 1015.7
22 12.08 В 6
{9}
24 км н/о +28.8 +21.1 63 +36 +36 очень
душно
1015.5 1015.2
23 12.08 В 6
{9}
23 км 10/10 600 м
[]
+29.1 +21.1 62 +37 +37 очень
душно
1014.7 1014.4
00 13.08 В 6
{9}
23 км н/о +29.6 +21.5 62 +38 +38 очень
душно
1014.0 1013.7
01 13.08 В 6
{9}
23 км н/о +28.9 +21.4 64 +37 +37 очень
душно
1013.5 1013.2
02 13.08 В 6
{9}
23 км н/о +28.4 +21.2 65 +36 +36 очень
душно
1013.8 1013.5
03 13.08 В 4 30 км 9/9 600 м
[]
+26.0 +21.2 75 +33 +33 очень
душно
1014.3 1014.0
04 13.08 В 3 55 км 10/3 700 м
[]
+25.3 +21.4 79 +32 +32 очень
душно
1014.5 1014.2
05 13.08 В 2 60 км н/о +25.5 +21.0 76 +32 +32 очень
душно
1015.0 1014.7
06 13.08 В 2 60 км н/о +25.1 +21.4 80 +32 +32 очень
душно
1015.4 1015.1 +25.0 +29.8
07 13.08 В 3 55 км 9/1 480 м
[]
+25.4 +21.7 80 +33 +33 очень
душно
1015.6 1015.3
08 13.08 В 3 60 км 10/1 500 м
[]
+25.5 +21.6 79 +33 +33 очень
душно
1015.8 1015.5
09 13.08 ЮВ 3 60 км н/о +25.3 +21.4 79 +32 +32 очень
душно
1015.5 1015.2
10 13.08 В 3 50 км 8/3 600 м
[]
+25.6 +21.1 76 +32 +32 очень
душно
1015.2 1014.9
11 13.08 ЮВ 3 60 км н/о +25.0 +21.1 79 +32 +32 очень
душно
1014.9 1014.6
12 13.08 В 2-3
{3}
60 км н/о +24.6 +20.7 79 +31 +31 очень
душно
1014.4 1014.1
13 13.08 ЮВ 3 55 км н/о +25.2 +21.3 79 +32 +32 очень
душно
1014.2 1013.9
14 13.08 ЮВ 3 60 км н/о +25.0 +20.9 78 +31 +31 очень
душно
1014.4 1014.1
15 13.08 ЮВ 3 60 км н/о +24.8 +20.9 79 +31 +31 очень
душно
1014.6 1014.3
16 13.08 ЮВ 3 60 км н/о +24.7 +20.4 77 +31 +31 очень
душно
1015.2 1014.9
17 13.08 ЮВ 3 60 км н/о +25.2 +20.5 75 +31 +31 очень
душно
1016.1 1015.8
18 13.08 ЮВ 3-4
{4}
60 км н/о +26.4 +20.3 69 +33 +33 очень
душно
1016.6 1016.3 +24.5 +26.4
19 13.08 ЮВ 2 60 км н/о +27.2 +19.3 62 +33 +33 очень
душно
1017.0 1016.7
20 13.08 ЮВ 2 60 км н/о +27.7 +19.2 60 +33 +33 очень
душно
1016.8 1016.5
21 13.08 ЮВ 2 60 км н/о +28.2 +19.2 58 +34 +34 очень
душно
1016.1 1015.8
22 13.08 ЮВ 2 60 км н/о +28.1 +19.1 58 +33 +33 очень
душно
1015.4 1015.1
23 13.08 ЮВ 2 60 км н/о +28.3 +19.2 58 +34 +34 очень
душно
1014.9 1014.6
00 14.08 В 3-4
{4}
60 км н/о +29.0 +20.2 59 +35 +35 очень
душно
1014.1 1013.8
01 14.08 В 3 60 км н/о +28.8 +19.7 58 +35 +35 очень
душно
1013.6 1013.3
02 14.08 ЮВ 3 60 км 8/8 960 м
[]
+28.1 +19.9 61 +34 +35 очень
душно
1013.6 1013.3
03 14.08 ЮВ 3 60 км 8/8 900 м
[]
+27.1 +20.0 65 +33 +33 очень
душно
1014.2 1013.9
04 14.08 ЮВ 3 60 км н/о +25.8 +19.2 67 +31 +31 очень
душно
1014.5 1014.2
05 14.08 ЮВ 3 60 км н/о +25.7 +20.0 71 +32 +32 очень
душно
1014.9 1014.6
06 14.08 ЮВ 4 60 км н/о +25.8 +21.0 75 +32 +32 очень
душно
1015.2 1014.9 +25.5 +29.2
07 14.08 ЮВ 4 60 км 9/8 1320 м
[]
+25.9 +20.5 72 +32 +32 очень
душно
1015.7 1015.4
08 14.08 ЮВ 4 60 км н/о +25.7 +20.9 75 +32 +32 очень
душно
1015.7 1015.4
09 14.08 ЮВ 3 50 км 9/9 1050 м
[]
+24.9 +21.6 82 +32 +32 очень
душно
1015.6 1015.3
10 14.08 ЮВ 4 60 км н/о +25.2 +20.9 77 +32 +32 очень
душно
1015.4 1015.1
11 14.08 ЮВ 3 60 км 8/8 1170 м
[]
+25.6 +21.1 76 +32 +32 очень
душно
1015.1 1014.8
12 14.08 ЮВ 3-4
{5}
60 км н/о +25.2 +21.3 79 +32 +32 очень
душно
1014.8 1014.5
13 14.08 ЮВ 3 55 км н/о +25.2 +21.7 81 +32 +32 очень
душно
1014.4 1014.1
14 14.08 ЮВ 4 60 км н/о +25.1 +21.6 81 +32 +32 очень
душно
1014.2 1013.9
15 14.08 ЮВ 4 45 км 9/6 1320 м
[]
+24.0 +21.1 84 +30 +30 очень
душно
1014.5 1014.2
16 14.08 ЮВ 5
{8}
60 км н/о +24.3 +22.7 91 +32 +32 очень
душно
1014.8 1014.5 0.2
17 14.08 В 3 26 км 10/9 540 м
[]
+24.8 +21.5 82 +32 +32 очень
душно
1015.5 1015.2
18 14.08 ЮВ 4 60 км 10/9 540 м
[]
+24.9 +21.6 82 +32 +32 очень
душно
1016.2 1015.9 +23.9 +26.0 0.2
19 14.08 ЮВ 4 60 км н/о +25.3 +21.4 79 +32 +32 очень
душно
1016.5 1016.2
20 14.08 ЮВ 4 60 км 9/1 540 м
[]
+26.0 +22.1 79 +34 +38 очень
душно
1016.5 1016.2
21 14.08 ЮВ 4 40 км 10/9 450 м
[]
+26.5 +21.9 76 +34 +35 очень
душно
1016.2 1015.9 0.2
22 14.08 ЮВ 4 3200 м слабый дождь 10/10 150 м
[]
+24.4 +22.8 91 +32 +32 очень
душно
1015.8 1015.5 1
23 14.08 ЮВ 4 3400 м дождь 10/10 150 м
[]
+24.2 +23.0 93 +32 +32 очень
душно
1015.5 1015.2 0.6
00 15.08 ЮВ 3 60 км 10/10 600 м
[]
+24.9 +23.1 90 +33 +33 очень
душно
1014.6 1014.3 3
01 15.08 ЮВ 3 60 км 9/9 540 м
[]
+26.0 +22.1 79 +34 +34 очень
душно
1014.2 1013.9
02 15.08 ЮВ 5 60 км н/о +25.7 +22.4 82 +34 +34 очень
душно
1014.1 1013.8
03 15.08 ЮВ 5 60 км 8/1 360 м
[]
+25.1 +21.6 81 +32 +32 очень
душно
1014.3 1014.0 3
04 15.08 ЮВ 4 60 км 9/1 330 м
[]
+24.4 +21.5 84 +31 +31 очень
душно
1014.8 1014.5
05 15.08 ЮВ 6 60 км 9/4 400 м
[]
+24.6 +21.3 82 +31 +31 очень
душно
1015.2 1014.9
06 15.08 ЮВ 5 55 км 10/9 660 м
[]
+25.2 +21.5 80 +32 +32 очень
душно
1015.8 1015.5 +23.9 +27.1
07 15.08 ЮВ 5 60 км 10/4 630 м
[]
+24.9 +20.6 77 +31 +31 очень
душно
1016.2 1015.9
08 15.08 ЮВ 5 60 км 9/8 720 м
[]
+25.2 +20.2 74 +31 +31 очень
душно
1016.3 1016.0
09 15.08 ЮВ 5 60 км 10/10 1080 м
[]
+25.2 +20.0 73 +31 +31 очень
душно
1016.3 1016.0
10 15.08 ЮВ 4 60 км 10/10 1080 м
[]
+25.1 +19.7 72 +31 +31 очень
душно
1016.4 1016.1
11 15.08 ЮВ 5 45 км 10/9 840 м
[]
+24.5 +20.0 76 +30 +30 очень
душно
1015.9 1015.6
12 15.08 ЮВ 4 60 км 9/9 720 м
[]
+24.7 +20.2 76 +30 +30 очень
душно
1015.1 1014.8
13 15.08 ЮВ 5 60 км н/о +24.3 +19.8 76 +30 +30 очень
душно
1014.9 1014.6
14 15.08 ЮВ 5 60 км н/о +24.6 +19.4 73 +30 +30 очень
душно
1014.8 1014.5
15 15.08 ЮВ 8
{12}
60 км 10/10 600 м
[]
+24.8 +19.4 72 +30 +30 душно 1015.1 1014.8
16 15.08 ЮВ 5 55 км 10/10 930 м
[]
+24.7 +19.5 73 +30 +30 очень
душно
1015.9 1015.6
17 15.08 ЮВ 4 50 км н/о +24.7 +19.8 74 +30 +30 очень
душно
1016.7 1016.4
18 15.08 ЮВ 4 60 км 8/8 720 м
[]
+25.7 +19.8 70 +31 +32 очень
душно
1017.1 1016.8 +24.1 +25.7
19 15.08 ЮВ 5 60 км 10/10 1140 м
[]
+25.5 +19.4 69 +31 +31 очень
душно
1017.7 1017.4
20 15.08 ЮВ 4 60 км 9/9 800 м
[]
+26.9 +19.3 63 +32 +33 очень
душно
1017.6 1017.3
21 15.08 ЮВ 4 60 км н/о +27.2 +18.8 60 +32 +32 очень
душно
1017.2 1016.9
22 15.08 ЮВ 4 35 км 10/10 1050 м
[]
+26.4 +18.0 60 +31 +31 душно 1016.3 1016.0
23 15.08 ЮВ 7
{11}
50 км 10/10 1000 м
[]
+26.3 +17.1 57 +30 +30 душно 1015.7 1015.4
00 16.08 ЮВ 4-5
{6}
60 км 10/10 1380 м
[]
+26.9 +16.5 53 +30 +30 душно 1014.8 1014.5
01 16.08 ЮВ 4 55 км н/о +27.0 +17.2 55 +31 +31 душно 1014.4 1014.1
02 16.08 ЮВ 4 55 км н/о +26.6 +16.2 53 +30 +30 душно 1014.3 1014.0
03 16.08 ЮВ 5 55 км н/о +25.5 +17.7 62 +30 +30 душно 1014.4 1014.1
04 16.08 ЮВ 5 60 км н/о +24.9 +15.5 56 +28 +28 жарко 1014.8 1014.5
05 16.08 В 8
{13}
60 км н/о +24.8 +16.5 60 +28 +28 жарко 1015.0 1014.7
06 16.08 В 4 55 км 8/8 1230 м
[]
+24.9 +17.1 62 +29 +29 душно 1015.5 1015.2 +24.6 +27.4
07 16.08 В 4 60 км н/о +24.6 +16.8 62 +28 +28 душно 1015.8 1015.5
08 16.08 ЮВ 4 60 км н/о +24.5 +17.5 65 +29 +29 душно 1015.7 1015.4
09 16.08 В 5 45 км 8/3 1020 м
[]
+24.5 +17.7 66 +29 +29 душно 1015.8 1015.5
10 16.08 ЮВ 4 55 км н/о +24.7 +17.4 64 +29 +29 душно 1015.7 1015.4
11 16.08 ЮВ 5 55 км 9/8 1050 м
[]
+24.5 +17.7 66 +29 +29 душно 1015.4 1015.1
12 16.08 ЮВ 4-6
{6}
55 км н/о +24.6 +17.3 64 +29 +29 душно 1015.2 1014.9
13 16.08 ЮВ 4 55 км 9/5 1300 м
[]
+24.1 +18.7 72 +29 +29 душно 1015.0 1014.7
14 16.08 ЮВ 4 50 км н/о +24.4 +18.1 68 +29 +29 душно 1015.1 1014.8
15 16.08 ЮВ 4 50 км н/о +24.6 +18.1 67 +29 +29 душно 1015.2 1014.9
16 16.08 ЮВ 5 55 км н/о +24.5 +18.2 68 +29 +29 душно 1015.7 1015.4

 

Местоположение метеостанции Bora-Bora Airport (Французская Полинезия): широта -16.43 долгота -151.70 высота над уровнем моря 3 м.

В архиве по умолчанию представлена погода в Bora-Bora Airport за последнюю неделю. Архивные данные за месяц целиком и за предыдущие месяцы, начиная с января 2011 года, Вы можете получить, выбрав интересующий диапазон дат из раскрывающегося списка и нажав кнопку "Ввод!".

Внимание! Время в таблицах - всемирное. Для получения местного времени необходимо прибавить поправку, которая в Bora-Bora Airport равна -10 ч.

Смотрите также архив погоды в соседних городах и на ближайших метеорологических станциях:

Погода в Tahiti-Faaa (Французская Полинезия) (256 км)
Погода в Takaroa (Французская Полинезия) (750 км)
Погода в Hereheretue (Французская Полинезия) (806 км)
Погода в Tubuai (Французская Полинезия) (806 км)
Погода в Aitutaki (Кука Острова) (889 км)
Погода в Rarotonga (Кука Острова) (1004 км)
Погода в Penrhyn (Кука Острова) (1070 км)
Погода в Hao (Французская Полинезия) (1161 км)
Погода в Manihiki (Кука Острова) (1209 км)
Погода в Rapa (Французская Полинезия) (1458 км)

Пояснения к столбцам:

Ветер - указаны скорость ветра в м/с - средняя за 10 мин, порывы в срок и между сроками (в фигурных скобках) и направление, откуда дует ветер: С - северный, СВ - северо-восточный, В - восточный, ЮВ - юго-восточный, Ю - южный, ЮЗ - юго-западный, З - западный, СЗ - северо-западный.
Видимость - горизонтальная дальность видимости в метрах или километрах. При видимости от 1 до 10 км при отсутствии осадков обычно наблюдается дымка, при ухудшении видимости до 1 км и менее - туман. В сухую погоду видимость может ухудшаться дымом, пылью или мглою.
Явления - указаны атмосферные явления, наблюдавшиеся в срок или в последний час перед сроком; фигурными скобками обозначены явления, наблюдавшиеся между сроками (за 1-3 часа до срока); квадратными скобками обозначены град или гололедные отложения с указанием их диаметра в мм.
Облачность - указаны через наклонную черту общая и нижняя облачность в баллах и высота нижней границы облаков в метрах; квадратными скобками обозначены формы облаков: Ci - перистые, Cs - перисто-слоистые, Cc - перисто-кучевые, Ac - высококучевые, As - высокослоистые, Sc - слоисто-кучевые, Ns - слоисто-дождевые, Cu - кучевые, Cb - кучево-дождевые. Подробнее классификацию облаков см. в Атласе облаков (PDF).
T - Температура воздуха - температура, измеренная на высоте 2 м над землей.
Td - Температура точки росы - температура, при понижении до которой содержащийся в воздухе водяной пар достигнет насыщения.
f - Относительная влажность воздуха - влажноcть воздуха, измеренная на высоте 2 м над землей.
Te - Эффективная температура - температура, которую ощущает одетый по сезону человек в тени. Характеристика душности погоды. При расчете учитывается влияние влажности воздуха и скорости ветра на теплоощущения человека.
Tes - Эффективная температура на солнце - температура, которую ощущает человек, с поправкой на солнечный нагрев. Характеристика знойности погоды. Зависит от высоты солнца над горизонтом, облачности и скорости ветра. Ночью, в пасмурную погоду, а также при ветре 12 м/с и более поправка равна нулю.
P - Атмосферное давление - приведенное к уровню моря атмосферное давление.
Po - Атмосферное давление - измеренное на уровне метеостанции атмосферное давление.
Tmin - Минимальная температура - минимум температуры воздуха на высоте 2 м над землей.
Tmax - Максимальная температура - максимум температуры воздуха на высоте 2 м над землей.
R - Количество осадков - Количество выпавших осадков за период времени, мм. При наведении курсора мыши на число - период времени, за который выпало указанное количество осадков.
R24 - Количество осадков - Количество выпавших осадков за 24 часа, мм.
S - Снежный покров - Высота снежного покрова, см. При наведении курсора мыши на число - состояние снежного покрова и степень покрытия местности в баллах.